TimeEST,TemperatureF,Dew PointF,Humidity,Sea Level PressureIn,VisibilityMPH,Wind Direction,Wind SpeedMPH,Gust SpeedMPH,PrecipitationIn,Events,Conditions,WindDirDegrees,DateUTC
12:51 AM,8.1,-4.0,58,30.25,-9999.0,West,8.1,-,N/A,,Unknown,270,2013-01-23 05:51:00
1:51 AM,8.1,-4.0,58,30.25,-9999.0,Variable,4.6,16.1,N/A,,Unknown,0,2013-01-23 06:51:00
2:51 AM,7.0,-2.9,64,30.25,-9999.0,WSW,10.4,-,N/A,,Unknown,240,2013-01-23 07:51:00
3:51 AM,7.0,-0.9,70,30.25,-9999.0,WSW,10.4,16.1,N/A,,Unknown,240,2013-01-23 08:51:00
4:51 AM,7.0,-0.9,70,30.24,-9999.0,WSW,6.9,-,N/A,,Unknown,240,2013-01-23 09:51:00
5:51 AM,7.0,-0.0,73,30.23,-9999.0,WSW,8.1,16.1,N/A,,Unknown,240,2013-01-23 10:51:00
6:51 AM,7.0,-0.9,70,30.23,-9999.0,SW,12.7,20.7,N/A,,Unknown,230,2013-01-23 11:51:00
7:51 AM,7.0,-0.9,70,30.23,-9999.0,WSW,12.7,18.4,N/A,,Unknown,240,2013-01-23 12:51:00
8:51 AM,7.0,-0.0,73,30.23,-9999.0,WSW,10.4,16.1,N/A,,Unknown,240,2013-01-23 13:51:00
9:51 AM,8.1,-0.0,70,30.23,-9999.0,SW,10.4,19.6,N/A,,Unknown,230,2013-01-23 14:51:00
10:51 AM,10.0,-2.0,58,30.22,-9999.0,SW,9.2,16.1,N/A,,Unknown,230,2013-01-23 15:51:00
11:51 AM,10.0,-2.0,58,30.20,-9999.0,SW,13.8,23.0,N/A,,Unknown,230,2013-01-23 16:51:00
12:51 PM,12.0,1.0,61,30.16,-9999.0,WSW,11.5,17.3,N/A,,Unknown,250,2013-01-23 17:51:00
1:51 PM,12.0,1.0,61,30.14,-9999.0,WSW,11.5,17.3,N/A,,Unknown,250,2013-01-23 18:51:00
2:51 PM,12.9,1.9,62,30.13,-9999.0,SW,13.8,19.6,N/A,,Unknown,230,2013-01-23 19:51:00
3:51 PM,12.9,6.1,74,30.11,-9999.0,Variable,5.8,-,N/A,,Unknown,0,2013-01-23 20:51:00
4:51 PM,12.9,6.1,74,30.11,-9999.0,SW,5.8,-,N/A,,Unknown,220,2013-01-23 21:51:00
5:51 PM,12.9,5.0,71,30.11,-9999.0,Variable,4.6,-,N/A,,Unknown,0,2013-01-23 22:51:00
6:51 PM,14.0,5.0,67,30.12,-9999.0,WSW,6.9,-,N/A,,Unknown,250,2013-01-23 23:51:00
7:51 PM,14.0,5.0,67,30.11,-9999.0,WSW,4.6,-,N/A,,Unknown,240,2013-01-24 00:51:00
8:51 PM,14.0,6.1,71,30.11,-9999.0,Variable,3.5,-,N/A,,Unknown,0,2013-01-24 01:51:00
9:51 PM,14.0,9.0,80,30.12,-9999.0,WSW,4.6,-,0.02,,Unknown,240,2013-01-24 02:51:00
10:51 PM,15.1,5.0,64,30.13,-9999.0,WNW,6.9,-,N/A,,Unknown,300,2013-01-24 03:51:00
11:51 PM,16.0,7.0,68,30.15,-9999.0,NW,9.2,-,N/A,,Unknown,310,2013-01-24 04:51:00